BWA1504 TTPP-TTCP

Flight info

Callsign BWA1504
Flight time 0h 17m
Altitude 7000
Route SASIM DCT NOTEL
Aircraft AT76/M-SDFGIRY/S

Departure

Time 2026-05-08 11:33
Airport Piarco International Airport (TTPP)

Arrival

Time 2026-05-08 11:50
Airport A.N.R. Robinson International Airport (TTCP)
Time Latitude Longitude Altitude Speed Heading
2026-05-08 11:02 10.60134 -61.33841 48 ft 0 kts 130°
2026-05-08 11:26 10.60134 -61.33840 48 ft 0 kts 129°
2026-05-08 11:26 10.60131 -61.33836 48 ft 2 kts 127°
2026-05-08 11:26 10.60121 -61.33823 44 ft 3 kts 124°
2026-05-08 11:27 10.60108 -61.33798 45 ft 5 kts 115°
2026-05-08 11:27 10.60090 -61.33764 46 ft 6 kts 124°
2026-05-08 11:27 10.60054 -61.33736 46 ft 7 kts 162°
2026-05-08 11:27 10.59997 -61.33735 48 ft 9 kts 180°
2026-05-08 11:28 10.59931 -61.33734 48 ft 10 kts 179°
2026-05-08 11:28 10.59858 -61.33734 48 ft 11 kts 180°
2026-05-08 11:28 10.59782 -61.33733 48 ft 11 kts 179°
2026-05-08 11:28 10.59713 -61.33759 45 ft 11 kts 246°
2026-05-08 11:29 10.59709 -61.33844 48 ft 15 kts 270°
2026-05-08 11:29 10.59708 -61.33958 48 ft 16 kts 268°
2026-05-08 11:29 10.59705 -61.34066 48 ft 15 kts 268°
2026-05-08 11:29 10.59710 -61.34170 48 ft 14 kts 277°
2026-05-08 11:30 10.59706 -61.34269 47 ft 14 kts 264°
2026-05-08 11:30 10.59705 -61.34366 46 ft 13 kts 268°
2026-05-08 11:30 10.59705 -61.34460 48 ft 13 kts 271°
2026-05-08 11:30 10.59663 -61.34526 46 ft 12 kts 191°
2026-05-08 11:31 10.59627 -61.34528 48 ft 0 kts 174°
2026-05-08 11:31 10.59623 -61.34528 48 ft 2 kts 171°
2026-05-08 11:31 10.59590 -61.34527 48 ft 10 kts 179°
2026-05-08 11:31 10.59538 -61.34504 46 ft 7 kts 110°
2026-05-08 11:32 10.59536 -61.34457 46 ft 7 kts 90°
2026-05-08 11:32 10.59537 -61.34192 48 ft 67 kts 90°
2026-05-08 11:32 10.59538 -61.33530 49 ft 117 kts 89°
2026-05-08 11:32 10.59563 -61.32707 541 ft 110 kts 89°
2026-05-08 11:33 10.59599 -61.31935 940 ft 112 kts 86°
2026-05-08 11:33 10.59654 -61.31074 1090 ft 128 kts 86°
2026-05-08 11:33 10.59709 -61.30132 1313 ft 139 kts 87°
2026-05-08 11:33 10.59749 -61.29120 1550 ft 148 kts 88°
2026-05-08 11:34 10.59775 -61.28054 1779 ft 154 kts 89°
2026-05-08 11:34 10.59795 -61.26947 2015 ft 160 kts 88°
2026-05-08 11:34 10.59808 -61.25804 2241 ft 164 kts 88°
2026-05-08 11:34 10.59815 -61.24623 2472 ft 165 kts 88°
2026-05-08 11:35 10.59820 -61.23463 2696 ft 168 kts 88°
2026-05-08 11:35 10.59824 -61.22259 2919 ft 168 kts 84°
2026-05-08 11:35 10.60356 -61.21249 3194 ft 169 kts 34°
2026-05-08 11:35 10.61510 -61.21019 3449 ft 175 kts
2026-05-08 11:36 10.62737 -61.21022 3732 ft 177 kts
2026-05-08 11:36 10.63967 -61.20989 4039 ft 177 kts
2026-05-08 11:36 10.65201 -61.20931 4328 ft 177 kts
2026-05-08 11:36 10.66426 -61.20777 4627 ft 177 kts 13°
2026-05-08 11:37 10.67633 -61.20512 4901 ft 177 kts 18°
2026-05-08 11:37 10.68815 -61.20153 5187 ft 178 kts 21°
2026-05-08 11:37 10.69978 -61.19721 5456 ft 178 kts 23°
2026-05-08 11:37 10.71135 -61.19251 5698 ft 180 kts 24°
2026-05-08 11:38 10.72289 -61.18766 5974 ft 180 kts 24°
2026-05-08 11:38 10.73451 -61.18278 6256 ft 181 kts 24°
2026-05-08 11:38 10.74625 -61.17802 6529 ft 182 kts 23°
2026-05-08 11:38 10.75802 -61.17328 6777 ft 183 kts 22°
2026-05-08 11:39 10.77003 -61.16848 6886 ft 189 kts 23°
2026-05-08 11:39 10.78279 -61.16342 6956 ft 199 kts 22°
2026-05-08 11:39 10.79601 -61.15817 6964 ft 209 kts 22°
2026-05-08 11:39 10.80514 -61.15454 6898 ft 217 kts 23°
2026-05-08 11:40 10.81957 -61.14881 6808 ft 227 kts 22°
2026-05-08 11:40 10.83452 -61.14287 6652 ft 235 kts 22°
2026-05-08 11:40 10.84983 -61.13676 6302 ft 232 kts 22°
2026-05-08 11:40 10.86477 -61.13086 5947 ft 229 kts 22°
2026-05-08 11:41 10.87953 -61.12501 5606 ft 227 kts 22°
2026-05-08 11:41 10.89416 -61.11920 5246 ft 225 kts 23°
2026-05-08 11:41 10.90868 -61.11345 4887 ft 223 kts 23°
2026-05-08 11:41 10.92310 -61.10771 4586 ft 221 kts 23°
2026-05-08 11:42 10.93758 -61.10199 4341 ft 226 kts 23°
2026-05-08 11:42 10.95232 -61.09610 4091 ft 229 kts 23°
2026-05-08 11:42 10.96728 -61.09019 3841 ft 232 kts 23°
2026-05-08 11:42 10.98238 -61.08416 3588 ft 234 kts 24°
2026-05-08 11:43 10.99756 -61.07812 3341 ft 235 kts 23°
2026-05-08 11:43 11.01279 -61.07205 3090 ft 236 kts 24°
2026-05-08 11:43 11.02834 -61.06589 2835 ft 236 kts 23°
2026-05-08 11:43 11.04363 -61.05979 2649 ft 234 kts 23°
2026-05-08 11:44 11.05864 -61.05380 2568 ft 229 kts 23°
2026-05-08 11:44 11.07336 -61.04795 2532 ft 224 kts 23°
2026-05-08 11:44 11.08770 -61.04224 2507 ft 219 kts 23°
2026-05-08 11:44 11.10170 -61.03666 2493 ft 214 kts 23°
2026-05-08 11:45 11.11545 -61.03120 2490 ft 211 kts 23°
2026-05-08 11:45 11.12895 -61.02590 2487 ft 206 kts 22°
2026-05-08 11:45 11.14226 -61.02073 2488 ft 204 kts 22°
2026-05-08 11:45 11.15545 -61.01566 2488 ft 202 kts 22°
2026-05-08 11:46 11.16814 -61.01018 2486 ft 194 kts 37°
2026-05-08 11:46 11.17515 -60.99890 2494 ft 193 kts 80°
2026-05-08 11:46 11.17550 -60.98530 2491 ft 193 kts 89°
2026-05-08 11:46 11.17513 -60.97162 2498 ft 190 kts 91°
2026-05-08 11:47 11.17443 -60.95909 2492 ft 166 kts 92°
2026-05-08 11:47 11.17359 -60.94809 2429 ft 148 kts 94°
2026-05-08 11:47 11.17239 -60.93773 2036 ft 148 kts 95°
2026-05-08 11:47 11.16980 -60.92786 1782 ft 140 kts 108°
2026-05-08 11:48 11.16652 -60.91947 1728 ft 116 kts 110°
2026-05-08 11:48 11.16251 -60.91194 1612 ft 127 kts 118°
2026-05-08 11:48 11.15824 -60.90405 1544 ft 130 kts 115°
2026-05-08 11:48 11.15451 -60.89586 1311 ft 127 kts 109°
2026-05-08 11:49 11.15217 -60.88713 1080 ft 128 kts 97°
2026-05-08 11:49 11.15174 -60.87821 996 ft 125 kts 89°
2026-05-08 11:49 11.15193 -60.86929 836 ft 126 kts 87°
2026-05-08 11:49 11.15193 -60.86033 602 ft 125 kts 92°
2026-05-08 11:50 11.15111 -60.85158 379 ft 123 kts 95°
2026-05-08 11:50 11.15048 -60.84295 87 ft 120 kts 94°
2026-05-08 11:50 11.14994 -60.83543 57 ft 88 kts 94°
2026-05-08 11:50 11.14962 -60.83119 52 ft 16 kts 103°
2026-05-08 11:51 11.14965 -60.83058 58 ft 8 kts 334°
2026-05-08 11:51 11.14969 -60.83134 53 ft 12 kts 265°
2026-05-08 11:51 11.14968 -60.83217 58 ft 12 kts 273°
2026-05-08 11:51 11.14974 -60.83301 58 ft 12 kts 273°
2026-05-08 11:52 11.14985 -60.83412 57 ft 18 kts 275°
2026-05-08 11:52 11.14994 -60.83546 56 ft 24 kts 273°
2026-05-08 11:52 11.15006 -60.83735 55 ft 28 kts 274°
2026-05-08 11:52 11.15082 -60.83842 53 ft 9 kts 318°
2026-05-08 11:53 11.15112 -60.83897 53 ft 9 kts 280°
2026-05-08 11:53 11.15116 -60.83966 53 ft 10 kts 274°
2026-05-08 11:53 11.15121 -60.84037 53 ft 10 kts 273°
2026-05-08 11:53 11.15138 -60.84066 53 ft 2 kts 354°
2026-05-08 11:54 11.15164 -60.84063 53 ft 5 kts
2026-05-08 11:54 11.15185 -60.84061 53 ft 0 kts